TimeEST,TemperatureF,Dew PointF,Humidity,Sea Level PressureIn,VisibilityMPH,Wind Direction,Wind SpeedMPH,Gust SpeedMPH,PrecipitationIn,Events,Conditions,WindDirDegrees,DateUTC
12:13 AM,9.0,3.0,77,30.23,-9999.0,North,9.2,-,N/A,,Overcast,350,2014-01-03 05:13:00
12:32 AM,9.1,3.7,79,30.23,-9999.0,NNW,9.2,-,N/A,,Overcast,330,2014-01-03 05:32:00
12:53 AM,8.8,5.0,85,30.23,1.0,NW,9.2,-,N/A,Snow,Light Snow,320,2014-01-03 05:53:00
1:13 AM,8.6,4.6,84,30.23,2.0,NW,11.5,-,N/A,Snow,Light Snow,320,2014-01-03 06:13:00
1:32 AM,8.2,4.6,85,30.24,1.0,NW,11.5,-,N/A,Snow,Snow,320,2014-01-03 06:32:00
1:53 AM,7.7,3.9,85,30.24,1.0,NW,13.8,-,N/A,Snow,Snow,320,2014-01-03 06:53:00
2:13 AM,5.7,1.4,82,30.26,1.5,WNW,10.4,-,N/A,Snow,Light Snow,300,2014-01-03 07:13:00
2:32 AM,3.9,-0.4,82,30.26,1.2,WNW,10.4,-,N/A,Snow,Light Snow,300,2014-01-03 07:32:00
2:53 AM,3.6,-0.9,82,30.27,1.5,WNW,11.5,17.3,N/A,Snow,Light Snow,300,2014-01-03 07:53:00
3:13 AM,3.7,-0.6,82,30.28,1.2,WNW,9.2,-,N/A,Snow,Light Snow,300,2014-01-03 08:13:00
3:32 AM,3.7,-0.8,82,30.29,2.5,NW,9.2,-,N/A,Snow,Light Snow,310,2014-01-03 08:32:00
3:53 AM,3.2,-1.3,82,30.29,4.0,WNW,10.4,-,N/A,Snow,Light Snow,300,2014-01-03 08:53:00
4:13 AM,2.5,-2.2,81,30.29,7.0,NW,8.1,-,N/A,,Overcast,310,2014-01-03 09:13:00
4:32 AM,2.7,-1.8,81,30.29,10.0,NW,10.4,-,N/A,,Overcast,310,2014-01-03 09:32:00
4:53 AM,2.1,-2.4,81,30.29,10.0,NW,6.9,-,N/A,,Mostly Cloudy,310,2014-01-03 09:53:00
5:13 AM,1.4,-2.9,82,30.31,10.0,WNW,8.1,-,N/A,,Scattered Clouds,290,2014-01-03 10:13:00
5:32 AM,1.4,-3.1,81,30.31,10.0,WNW,8.1,-,N/A,,Mostly Cloudy,290,2014-01-03 10:32:00
5:53 AM,1.4,-3.1,81,30.32,10.0,WNW,11.5,-,N/A,,Scattered Clouds,290,2014-01-03 10:53:00
6:13 AM,0.5,-3.6,83,30.32,10.0,WNW,9.2,-,N/A,,Scattered Clouds,300,2014-01-03 11:13:00
6:32 AM,0.5,-3.8,82,30.33,10.0,WNW,9.2,-,N/A,,Scattered Clouds,300,2014-01-03 11:32:00
6:53 AM,0.5,-4.0,81,30.34,10.0,WNW,9.2,-,N/A,,Clear,290,2014-01-03 11:53:00
7:13 AM,0.7,-4.0,81,30.34,10.0,WNW,6.9,-,N/A,,Scattered Clouds,300,2014-01-03 12:13:00
7:32 AM,-1.1,-5.3,83,30.35,10.0,WNW,5.8,-,N/A,,Clear,300,2014-01-03 12:32:00
7:53 AM,-3.5,-7.8,82,30.35,10.0,WSW,3.5,-,N/A,,Clear,250,2014-01-03 12:53:00
8:13 AM,-4.5,-8.7,82,30.35,7.0,SW,4.6,-,N/A,,Clear,230,2014-01-03 13:13:00
8:32 AM,-5.1,-9.4,82,30.35,5.0,WSW,4.6,-,N/A,,Haze,250,2014-01-03 13:32:00
8:53 AM,-4.5,-8.7,82,30.36,10.0,WSW,4.6,-,N/A,,Clear,240,2014-01-03 13:53:00
9:13 AM,-7.8,-12.6,79,30.36,10.0,Calm,Calm,-,N/A,,Clear,0,2014-01-03 14:13:00
9:33 AM,-7.4,-12.1,80,30.37,4.0,Calm,Calm,-,N/A,,Haze,0,2014-01-03 14:33:00
9:53 AM,-4.5,-8.9,82,30.37,10.0,West,11.5,17.3,N/A,,Clear,260,2014-01-03 14:53:00
10:12 AM,-1.8,-6.9,79,30.37,10.0,West,6.9,-,N/A,,Clear,260,2014-01-03 15:12:00
10:33 AM,-0.8,-6.9,75,30.37,10.0,West,5.8,-,N/A,,Clear,260,2014-01-03 15:33:00
10:53 AM,0.9,-6.0,73,30.37,10.0,WSW,4.6,-,N/A,,Clear,240,2014-01-03 15:53:00
11:12 AM,1.8,-5.8,71,30.37,10.0,WSW,4.6,-,N/A,,Clear,250,2014-01-03 16:12:00
11:33 AM,3.2,-4.9,69,30.37,10.0,WSW,3.5,-,N/A,,Clear,250,2014-01-03 16:33:00
11:53 AM,4.6,-4.2,67,30.36,10.0,WSW,5.8,-,N/A,,Clear,250,2014-01-03 16:53:00
12:12 PM,5.4,-4.0,65,30.35,10.0,WSW,8.1,-,N/A,,Clear,250,2014-01-03 17:12:00
12:33 PM,5.7,-3.5,66,30.34,10.0,SW,3.5,-,N/A,,Clear,230,2014-01-03 17:33:00
12:53 PM,5.7,-3.3,66,30.32,10.0,South,3.5,-,N/A,,Clear,190,2014-01-03 17:53:00
1:12 PM,6.3,-2.9,66,30.32,10.0,South,3.5,-,N/A,,Clear,180,2014-01-03 18:12:00
1:33 PM,6.8,-3.5,63,30.32,10.0,SSW,3.5,-,N/A,,Clear,200,2014-01-03 18:33:00
1:53 PM,7.7,-2.4,63,30.31,10.0,Calm,Calm,-,N/A,,Clear,0,2014-01-03 18:53:00
2:12 PM,8.2,-2.2,63,30.30,10.0,South,3.5,-,N/A,,Clear,180,2014-01-03 19:12:00
2:33 PM,9.3,-1.1,63,30.29,10.0,South,4.6,-,N/A,,Clear,180,2014-01-03 19:33:00
2:53 PM,10.9,-0.2,61,30.29,10.0,South,6.9,-,N/A,,Clear,180,2014-01-03 19:53:00
3:12 PM,11.1,-0.2,60,30.28,10.0,South,6.9,-,N/A,,Clear,190,2014-01-03 20:12:00
3:33 PM,12.0,-0.6,57,30.28,10.0,South,11.5,-,N/A,,Clear,180,2014-01-03 20:33:00
3:53 PM,11.3,-0.8,58,30.27,10.0,South,9.2,-,N/A,,Clear,170,2014-01-03 20:53:00
4:12 PM,9.9,-2.0,59,30.27,10.0,South,9.2,-,N/A,,Clear,170,2014-01-03 21:12:00
4:33 PM,9.3,-1.8,61,30.26,10.0,SSE,6.9,-,N/A,,Clear,160,2014-01-03 21:33:00
4:52 PM,9.7,-1.1,62,30.25,10.0,SSE,10.4,-,N/A,,Clear,160,2014-01-03 21:52:00
5:13 PM,9.9,-1.7,60,30.24,10.0,South,10.4,-,N/A,,Scattered Clouds,170,2014-01-03 22:13:00
5:33 PM,10.8,-0.6,60,30.23,10.0,South,11.5,-,N/A,,Mostly Cloudy,170,2014-01-03 22:33:00
5:52 PM,10.4,-0.8,61,30.24,10.0,South,9.2,-,N/A,,Mostly Cloudy,180,2014-01-03 22:52:00
6:13 PM,11.7,0.3,60,30.24,10.0,South,12.7,-,N/A,,Mostly Cloudy,180,2014-01-03 23:13:00
6:33 PM,12.2,0.7,60,30.22,10.0,South,13.8,-,N/A,,Mostly Cloudy,180,2014-01-03 23:33:00
6:52 PM,12.2,1.4,62,30.21,10.0,South,13.8,-,N/A,,Scattered Clouds,170,2014-01-03 23:52:00
7:13 PM,12.9,2.3,63,30.20,10.0,South,15.0,19.6,N/A,,Scattered Clouds,180,2014-01-04 00:13:00
7:32 PM,12.9,2.5,63,30.19,10.0,South,17.3,23.0,N/A,,Scattered Clouds,180,2014-01-04 00:32:00
7:53 PM,12.7,3.0,65,30.19,10.0,South,17.3,23.0,N/A,,Mostly Cloudy,180,2014-01-04 00:53:00
8:12 PM,13.1,3.2,65,30.17,10.0,South,17.3,-,N/A,,Overcast,190,2014-01-04 01:12:00
8:33 PM,12.9,3.2,65,30.16,10.0,South,15.0,-,N/A,,Overcast,190,2014-01-04 01:33:00
8:53 PM,12.9,2.8,64,30.15,10.0,South,18.4,-,N/A,,Overcast,190,2014-01-04 01:53:00
9:12 PM,12.0,1.9,64,30.12,7.0,South,23.0,31.1,N/A,,Mostly Cloudy,190,2014-01-04 02:12:00
9:33 PM,11.8,2.1,65,30.11,7.0,South,19.6,26.5,N/A,,Mostly Cloudy,190,2014-01-04 02:33:00
9:53 PM,11.3,1.9,66,30.10,7.0,South,20.7,26.5,N/A,,Mostly Cloudy,190,2014-01-04 02:53:00
10:12 PM,11.3,1.6,65,30.09,10.0,South,16.1,25.3,N/A,,Scattered Clouds,180,2014-01-04 03:12:00
10:33 PM,11.3,2.1,67,30.07,7.0,South,19.6,28.8,N/A,,Clear,180,2014-01-04 03:33:00
10:53 PM,11.7,2.3,66,30.05,7.0,South,19.6,29.9,N/A,,Clear,180,2014-01-04 03:53:00
11:12 PM,11.5,2.5,67,30.06,7.0,South,20.7,28.8,N/A,,Clear,190,2014-01-04 04:12:00
11:33 PM,12.0,3.2,68,30.04,7.0,South,21.9,27.6,N/A,,Clear,190,2014-01-04 04:33:00
11:52 PM,12.6,3.2,66,30.04,7.0,South,21.9,32.2,N/A,,Clear,190,2014-01-04 04:52:00